When you browse on this site, cookies collect data to enhance your experience and personalize the content and advertising you see.
Visit our Privacy Policy to learn more. By continuing to use the site, you agree to this use of cookies and data.
  • In Sweden
  • List of Countries
  • For 7 days
  • Water Temperature
  • Satellite Maps
  • Weather Map
  • Weather Widgets
  • user-avatar
    Login

    Hourly Weather Bayburt

    Today, 17 January, Thursday

    Time Temperature Precipitation Wind Pressure Humidity
    00:00 -5°C° 0.8 mm 3 mps 616 mmHg 94%
    01:00 -6°C° 1.4 mm 3 mps 616 mmHg 94%
    02:00 -7°C° 1.4 mm 3 mps 616 mmHg 94%
    03:00 -8°C° 1.4 mm 3 mps 616 mmHg 95%
    04:00 -8°C° 0.8 mm 3 mps 616 mmHg 94%
    05:00 -9°C° 0.8 mm 3 mps 616 mmHg 94%
    06:00 -10°C° 0.8 mm 3 mps 617 mmHg 94%
    07:00 -10°C° 0.5 mm 3 mps 617 mmHg 93%
    08:00 -10°C° 0.5 mm 3 mps 618 mmHg 93%
    09:00 -10°C° 0.5 mm 3 mps 618 mmHg 92%
    10:00 -9°C° 0.3 mm 3 mps 619 mmHg 91%
    11:00 -9°C° 0.3 mm 3 mps 619 mmHg 89%
    12:00 -8°C° 0.3 mm 3 mps 620 mmHg 87%
    13:00 -8°C° 0.3 mm 3 mps 620 mmHg 88%
    14:00 -8°C° 0.3 mm 3 mps 620 mmHg 88%
    15:00 -9°C° 0.3 mm 3 mps 620 mmHg 89%
    16:00 -9°C° 0.3 mm 3 mps 621 mmHg 90%
    17:00 -10°C° 0.3 mm 3 mps 621 mmHg 91%
    18:00 -10°C° 0.3 mm 3 mps 621 mmHg 92%
    19:00 -12°C° 0.2 mm 3 mps 622 mmHg 92%
    20:00 -10°C° 0.2 mm 2 mps 622 mmHg 92%
    21:00 -10°C° 0.2 mm 2 mps 622 mmHg 92%
    22:00 -12°C° 0.1 mm 2 mps 623 mmHg 91%
    23:00 -12°C° 0.1 mm 2 mps 623 mmHg 91%

    Tomorrow, 18 January, Friday

    Time Temperature Precipitation Wind Pressure Humidity
    00:00 -13°C° 0.1 mm 2 mps 623 mmHg 91%
    01:00 -13°C° 0 mm 2 mps 623 mmHg 91%
    02:00 -12°C° 0 mm 1 mps 624 mmHg 92%
    03:00 -13°C° 0 mm 1 mps 624 mmHg 93%
    04:00 -13°C° 0 mm 1 mps 624 mmHg 93%
    05:00 -14°C° 0 mm 0 mps 624 mmHg 93%
    06:00 -14°C° 0 mm 0 mps 624 mmHg 94%
    07:00 -14°C° 0 mm 0 mps 624 mmHg 91%
    08:00 -13°C° 0 mm 1 mps 625 mmHg 89%
    09:00 -13°C° 0 mm 1 mps 625 mmHg 87%
    10:00 -11°C° 0 mm 1 mps 625 mmHg 85%
    11:00 -9°C° 0 mm 1 mps 626 mmHg 84%
    12:00 -7°C° 0 mm 1 mps 626 mmHg 83%
    13:00 -7°C° 0 mm 1 mps 626 mmHg 84%
    14:00 -7°C° 0 mm 1 mps 626 mmHg 85%
    15:00 -7°C° 0 mm 1 mps 625 mmHg 86%
    16:00 -9°C° 0 mm 1 mps 625 mmHg 85%
    17:00 -11°C° 0 mm 1 mps 624 mmHg 84%
    18:00 -13°C° 0 mm 1 mps 623 mmHg 83%
    19:00 -13°C° 0 mm 1 mps 623 mmHg 82%
    20:00 -14°C° 0 mm 1 mps 624 mmHg 81%
    21:00 -14°C° 0 mm 1 mps 624 mmHg 80%
    22:00 -14°C° 0 mm 1 mps 624 mmHg 80%
    23:00 -15°C° 0 mm 1 mps 624 mmHg 80%

    Day after tomorrow, 19 January, Saturday

    Time Temperature Precipitation Wind Pressure Humidity
    00:00 -15°C° 0 mm 1 mps 624 mmHg 80%
    01:00 -15°C° 0 mm 1 mps 624 mmHg 79%
    02:00 -15°C° 0 mm 1 mps 623 mmHg 77%
    03:00 -16°C° 0 mm 1 mps 623 mmHg 76%
    04:00 -16°C° 0 mm 1 mps 623 mmHg 74%
    05:00 -16°C° 0 mm 1 mps 623 mmHg 71%
    06:00 -16°C° 0 mm 1 mps 623 mmHg 69%
    07:00 -15°C° 0 mm 1 mps 623 mmHg 66%
    08:00 -14°C° 0 mm 1 mps 624 mmHg 64%
    09:00 -13°C° 0 mm 1 mps 624 mmHg 61%
    10:00 -11°C° 0 mm 1 mps 625 mmHg 63%
    11:00 -9°C° 0 mm 1 mps 625 mmHg 65%
    12:00 -7°C° 0 mm 1 mps 626 mmHg 66%
    13:00 -7°C° 0 mm 1 mps 625 mmHg 67%
    14:00 -6°C° 0 mm 1 mps 625 mmHg 69%
    15:00 -6°C° 0 mm 1 mps 625 mmHg 70%
    16:00 -7°C° 0 mm 0 mps 625 mmHg 66%
    17:00 -9°C° 0 mm 0 mps 624 mmHg 61%
    18:00 -11°C° 0 mm 0 mps 624 mmHg 57%
    19:00 -11°C° 0 mm 0 mps 624 mmHg 54%
    20:00 -11°C° 0 mm 0 mps 624 mmHg 52%
    21:00 -12°C° 0 mm 1 mps 624 mmHg 49%
    22:00 -12°C° 0 mm 1 mps 624 mmHg 49%
    23:00 -12°C° 0 mm 1 mps 624 mmHg 48%

    20 January, Sunday

    Time Temperature Precipitation Wind Pressure Humidity
    00:00 -13°C° 0 mm 0 mps 624 mmHg 47%
    01:00 -13°C° 0 mm 1 mps 624 mmHg 46%
    02:00 -13°C° 0 mm 1 mps 624 mmHg 45%
    03:00 -13°C° 0 mm 1 mps 624 mmHg 44%
    04:00 -13°C° 0 mm 1 mps 624 mmHg 44%
    05:00 -13°C° 0 mm 1 mps 623 mmHg 43%
    06:00 -13°C° 0 mm 1 mps 623 mmHg 43%
    07:00 -13°C° 0 mm 1 mps 624 mmHg 43%
    08:00 -12°C° 0 mm 1 mps 624 mmHg 44%
    09:00 -11°C° 0 mm 1 mps 625 mmHg 45%
    10:00 -10°C° 0 mm 1 mps 625 mmHg 50%
    11:00 -8°C° 0 mm 1 mps 626 mmHg 55%
    12:00 -6°C° 0 mm 1 mps 626 mmHg 61%
    13:00 -6°C° 0 mm 1 mps 626 mmHg 63%
    14:00 -6°C° 0 mm 1 mps 625 mmHg 66%
    15:00 -4°C° 0 mm 1 mps 625 mmHg 69%
    16:00 -7°C° 0 mm 1 mps 624 mmHg 63%
    17:00 -9°C° 0 mm 1 mps 624 mmHg 57%
    18:00 -11°C° 0 mm 1 mps 623 mmHg 50%
    19:00 -11°C° 0 mm 1 mps 623 mmHg 49%
    20:00 -12°C° 0 mm 1 mps 624 mmHg 48%
    21:00 -12°C° 0 mm 1 mps 624 mmHg 47%
    22:00 -12°C° 0 mm 1 mps 624 mmHg 49%
    23:00 -15°C° 0 mm 2 mps 623 mmHg 51%

    21 January, Monday

    Time Temperature Precipitation Wind Pressure Humidity
    00:00 -15°C° 0 mm 2 mps 623 mmHg 53%
    01:00 -15°C° 0 mm 2 mps 623 mmHg 54%
    02:00 -15°C° 0 mm 2 mps 623 mmHg 55%
    03:00 -16°C° 0 mm 2 mps 623 mmHg 57%
    04:00 -16°C° 0 mm 2 mps 623 mmHg 57%
    05:00 -16°C° 0 mm 2 mps 622 mmHg 58%
    06:00 -16°C° 0 mm 2 mps 622 mmHg 58%
    07:00 -16°C° 0 mm 2 mps 623 mmHg 59%
    08:00 -15°C° 0 mm 2 mps 623 mmHg 59%
    09:00 -15°C° 0 mm 2 mps 623 mmHg 59%
    10:00 -13°C° 0 mm 2 mps 624 mmHg 61%
    11:00 -9°C° 0 mm 1 mps 624 mmHg 64%
    12:00 -7°C° 0 mm 1 mps 624 mmHg 66%
    13:00 -7°C° 0 mm 1 mps 624 mmHg 69%
    14:00 -7°C° 0 mm 1 mps 624 mmHg 71%
    15:00 -7°C° 0 mm 1 mps 623 mmHg 74%
    16:00 -8°C° 0 mm 1 mps 623 mmHg 70%
    17:00 -10°C° 0 mm 1 mps 623 mmHg 67%
    18:00 -12°C° 0 mm 1 mps 622 mmHg 63%
    19:00 -12°C° 0 mm 1 mps 622 mmHg 65%
    20:00 -12°C° 0 mm 1 mps 623 mmHg 68%
    21:00 -12°C° 0 mm 1 mps 623 mmHg 70%
    22:00 -12°C° 0 mm 1 mps 623 mmHg 72%
    23:00 -12°C° 0 mm 1 mps 623 mmHg 75%

    22 January, Tuesday

    Time Temperature Precipitation Wind Pressure Humidity
    00:00 -12°C° 0 mm 1 mps 623 mmHg 77%
    01:00 -12°C° 0 mm 1 mps 623 mmHg 79%
    02:00 -12°C° 0 mm 1 mps 623 mmHg 81%
    03:00 -12°C° 0 mm 1 mps 623 mmHg 82%
    04:00 -12°C° 0 mm 1 mps 623 mmHg 83%
    05:00 -12°C° 0 mm 1 mps 623 mmHg 85%
    06:00 -12°C° 0 mm 1 mps 623 mmHg 86%
    07:00 -11°C° 0 mm 1 mps 624 mmHg 86%
    08:00 -11°C° 0 mm 1 mps 624 mmHg 86%
    09:00 -10°C° 0 mm 1 mps 625 mmHg 86%
    10:00 -9°C° 0 mm 1 mps 625 mmHg 86%
    11:00 -7°C° 0 mm 1 mps 626 mmHg 86%
    12:00 -4°C° 0 mm 1 mps 626 mmHg 86%
    13:00 -4°C° 0 mm 1 mps 626 mmHg 87%
    14:00 -3°C° 0 mm 1 mps 626 mmHg 88%
    15:00 -3°C° 0 mm 1 mps 625 mmHg 88%
    16:00 -6°C° 0 mm 1 mps 625 mmHg 88%
    17:00 -8°C° 0 mm 1 mps 624 mmHg 88%
    18:00 -10°C° 0 mm 1 mps 624 mmHg 88%
    19:00 -10°C° 0 mm 1 mps 624 mmHg 87%
    20:00 -10°C° 0 mm 1 mps 624 mmHg 86%
    21:00 -13°C° 0 mm 2 mps 624 mmHg 85%
    22:00 -13°C° 0 mm 2 mps 623 mmHg 85%
    23:00 -13°C° 0 mm 2 mps 623 mmHg 85%
    Show more